Weather History for HKMO - March, 2013

Change the Weather History Date:

Monday, March 18, 2013

  Actual Average Record
Temperature  
Mean Temperature 86 °F -  
Max Temperature 93 °F 91 °F 93 °F (1999)
Min Temperature 78 °F 73 °F 74 °F (2015)
Cooling Degree Days 20    
Growing Degree Days 36 (Base 50)    
Moisture  
Dew Point 76 °F    
Average Humidity 75    
Maximum Humidity 89    
Minimum Humidity 52    
Precipitation  
Precipitation 0.00 in 0.15 in - ()
Sea Level Pressure  
Sea Level Pressure 29.79 in    
Wind  
Wind Speed 5 mph ()    
Max Wind Speed 12 mph    
Max Gust Speed -    
Visibility 7.7 miles    
Events      
Averages and records for this station are not official NWS values.
T = Trace of Precipitation, MM = Missing Value Source: Averaged Metar Reports

Daily Weather History Graph

Daily Weather History Graph

Search for Another Location

Airport or City:

Trip Planner

Search our weather history database for the weather conditions in past years. The results will help you decide how hot, cold, wet, or windy it might be!

Date:

Astronomy

Mar. 18, 2013 Rise Set
Actual Time 6:26 AM EAT 6:33 PM EAT
Civil Twilight 6:05 AM EAT 6:53 PM EAT
Nautical Twilight 5:41 AM EAT 7:17 PM EAT
Astronomical Twilight 5:17 AM EAT 7:41 PM EAT
Moon 11:30 AM EAT (3/18) 11:41 PM EAT (3/18)
Length of Visible Light 12h 48m
Length of Day
12h 07m
Waxing Crescent, 37% of the Moon is Illuminated
Mar 18
Waxing Crescent
Mar 19
First Quarter
Mar 27
Full
Apr 3
Last Quarter
Apr 10
New

Hourly Weather History & Observations

Time (EAT) Temp. Heat Index Dew Point Humidity Pressure Visibility Wind Dir Wind Speed Gust Speed Precip Events Conditions
12:00 AM 82.4 °F 90.9 °F 77.0 °F 84% 29.86 in 6.2 mi South 3.5 mph - N/A   Partly Cloudy
1:00 AM 80.6 °F 87.1 °F 77.0 °F 89% 29.83 in 6.2 mi WSW 4.6 mph - N/A   Partly Cloudy
1:30 AM 80.6 °F 87.1 °F 77.0 °F 89% 29.83 in 6.2 mi SW 5.8 mph - N/A   Partly Cloudy
3:00 AM 80 °F - 76 °F 85% 29.81 in 19 mi WSW 4.6 mph - -   Scattered Clouds
3:30 AM 80.6 °F 86.2 °F 75.2 °F 84% 29.80 in 6.2 mi WSW 4.6 mph - N/A   Mostly Cloudy
4:30 AM 80.6 °F 86.2 °F 75.2 °F 84% 29.80 in 6.2 mi SW 4.6 mph - N/A   Mostly Cloudy
5:30 AM 78.8 °F - 75.2 °F 89% 29.80 in 6.2 mi West 5.8 mph - N/A   Scattered Clouds
7:00 AM 78.8 °F - 75.2 °F 89% 29.83 in 6.2 mi West 5.8 mph - N/A   Mostly Cloudy
8:00 AM 84.2 °F 94.1 °F 77.0 °F 79% 29.86 in 6.2 mi WSW 5.8 mph - N/A   Mostly Cloudy
9:00 AM 84.2 °F 94.1 °F 77.0 °F 79% 29.86 in 6.2 mi South 5.8 mph - N/A   Mostly Cloudy
10:00 AM 87.8 °F 97.6 °F 75.2 °F 66% 29.86 in 6.2 mi SSE 6.9 mph - N/A   Scattered Clouds
11:00 AM 89.6 °F 99.8 °F 75.2 °F 62% 29.86 in 6.2 mi SSW 3.5 mph - N/A   Scattered Clouds
12:00 PM 91.4 °F 100.1 °F 73.4 °F 55% 29.80 in 6.2 mi SSE 5.8 mph - N/A   Mostly Cloudy
1:00 PM 91.4 °F 98.4 °F 71.6 °F 52% 29.77 in 6.2 mi South 11.5 mph - N/A   Mostly Cloudy
3:00 PM 90 °F - 75 °F 52% 29.73 in 19 mi East 3.5 mph - -   Scattered Clouds
3:00 PM 89.6 °F 99.8 °F 75.2 °F 62% 29.71 in 6.2 mi East 3.5 mph - N/A   Mostly Cloudy
4:00 PM 89.6 °F 98.2 °F 73.4 °F 59% 29.71 in 6.2 mi SE 10.4 mph - N/A   Mostly Cloudy
5:00 PM 87.8 °F 97.6 °F 75.2 °F 66% 29.71 in 6.2 mi SSE 8.1 mph - N/A   Mostly Cloudy
6:00 PM 86.0 °F 95.1 °F 75.2 °F 70% 29.71 in 6.2 mi SE 8.1 mph - N/A   Mostly Cloudy
7:00 PM 84.2 °F 94.1 °F 77.0 °F 79% 29.74 in 6.2 mi SE 6.9 mph - N/A   Mostly Cloudy
8:00 PM 84.2 °F 94.1 °F 77.0 °F 79% 29.74 in 6.2 mi SE 5.8 mph - N/A   Scattered Clouds
9:00 PM 84 °F - 77 °F 73% 29.77 in 19 mi SE 6.9 mph - -   Partly Cloudy
9:00 PM 84.2 °F 94.1 °F 77.0 °F 79% 29.77 in 6.2 mi SE 6.9 mph - N/A   Scattered Clouds
10:00 PM 84.2 °F 96.1 °F 78.8 °F 84% 29.80 in 6.2 mi SE 5.8 mph - N/A   Scattered Clouds
11:00 PM 84.2 °F 94.1 °F 77.0 °F 79% 29.80 in 6.2 mi SSE 3.5 mph - N/A   Partly Cloudy